Stations météo

réclame
Mon MeteoGroup
Amsterdam Airport, Pays-Bas (6240): Température de l'air & dewpoint: 18.01.2018 10:00:00 - 24.01.2018 10:00:00 (CET)Amsterdam Airport, Pays-Bas (6240): Température de l'air 5cm: 18.01.2018 10:00:00 - 24.01.2018 10:00:00 (CET)Amsterdam Airport, Pays-Bas (6240): Vitesse du vent & gusts: 18.01.2018 10:00:00 - 24.01.2018 10:00:00 (CET)Amsterdam Airport, Pays-Bas (6240): Direction du vent: 18.01.2018 10:00:00 - 24.01.2018 10:00:00 (CET)Amsterdam Airport, Pays-Bas (6240): reduced air pressure: 18.01.2018 10:00:00 - 24.01.2018 10:00:00 (CET)Amsterdam Airport, Pays-Bas (6240): visibility: 18.01.2018 10:00:00 - 24.01.2018 10:00:00 (CET)Amsterdam Airport, Pays-Bas (6240): Quantités de précipitations: 18.01.2018 10:00:00 - 24.01.2018 10:00:00 (CET)
Date & Time tt [°C] td [°C] tt 5cm [°C] ff [km/h] ff [knt] fx [km/h] fx [knt] dd ppp [hPa] vv [km] rr [mm]
24.01.2018 10:00:00 12,2 10,5 11,7 40 21 54 29 SSW 1011,0 11 0,0
24.01.2018 09:00:00 11,8 10,3 11,3 36 19 50 27 S 1011,7 17 0,0
24.01.2018 08:00:00 11,5 10,4 11,2 29 16 43 23 SSW 1012,2 25 0,0
24.01.2018 07:00:00 11,7 10,6 11,2 32 18 43 23 SSW 1012,9 23 0,0
24.01.2018 06:00:00 11,5 10,2 11,2 29 16 47 25 SSW 1013,3 21 0,0
24.01.2018 05:00:00 11,1 10,1 10,7 29 16 47 25 SSW 1014,0 24 0,0
24.01.2018 04:00:00 10,5 9,4 10,0 36 19 47 25 SW 1014,5 31 0,0
24.01.2018 03:00:00 9,8 8,7 9,2 25 14 43 23 SW 1015,2 30 0,0
24.01.2018 02:00:00 10,4 9,3 9,9 29 16 58 31 SW 1015,2 36 0,0
24.01.2018 01:00:00 11,1 9,8 10,6 40 21 50 27 SW 1015,0 34 0,0
24.01.2018 00:00:00 11,0 10,2 10,5 36 19 50 27 SW 1014,7 12 0,2
23.01.2018 23:00:00 10,4 10,0 10,1 29 16 43 23 SSW 1014,9 3,0 0,3
23.01.2018 22:00:00 10,2 9,8 9,9 32 18 - - SW 1015,0 2,5 0,0
23.01.2018 21:00:00 9,8 9,3 9,5 36 19 50 27 SSW 1014,8 3,9 0,0
23.01.2018 20:00:00 9,6 9,1 9,3 36 19 47 25 SSW 1014,9 3,9 0,0
23.01.2018 19:00:00 9,1 8,7 8,8 29 16 47 25 SSW 1015,1 2,9 0,1
23.01.2018 18:00:00 8,8 8,3 8,6 34 18 47 25 SSW 1015,6 2,6 0,0
23.01.2018 17:00:00 8,6 7,9 8,3 31 17 43 23 SSW 1015,7 10 0,0
23.01.2018 16:00:00 8,4 7,6 8,0 32 18 - - S 1015,9 10 0,2
23.01.2018 15:00:00 8,4 7,0 8,0 25 14 43 23 S 1016,3 28 0,4
23.01.2018 14:00:00 8,5 6,5 8,1 29 16 47 25 S 1017,0 13 0,1
23.01.2018 13:00:00 9,1 6,1 9,0 29 16 40 21 S 1017,8 26 0,0
23.01.2018 12:00:00 8,4 6,2 8,4 29 16 40 21 SSW 1018,6 10 0,0
23.01.2018 11:00:00 7,4 5,0 7,1 22 12 32 18 S 1019,2 10 0,0
23.01.2018 10:00:00 6,7 4,5 6,2 18 10 - - S 1019,0 21 0,0
23.01.2018 09:00:00 6,3 4,1 5,7 25 14 32 18 S 1019,2 22 0,0
23.01.2018 08:00:00 5,2 4,0 4,9 14 8 25 14 S 1018,9 20 0,0
23.01.2018 07:00:00 5,4 4,1 4,5 18 10 22 12 S 1019,1 20 0,0
23.01.2018 06:00:00 3,3 2,3 2,3 14 8 18 10 S 1019,2 21 0,0
23.01.2018 05:00:00 4,4 3,7 2,6 14 8 18 10 SSW 1019,0 19 0,0
23.01.2018 04:00:00 6,6 4,6 5,8 14 8 - - WSW 1019,1 19 0,0
23.01.2018 03:00:00 6,7 4,7 6,1 14 8 25 14 WSW 1018,6 19 0,0
23.01.2018 02:00:00 5,9 4,3 5,0 18 10 25 14 WSW 1018,0 19 0,0
23.01.2018 01:00:00 5,7 4,1 4,5 18 10 29 16 W 1017,8 20 0,0
23.01.2018 00:00:00 6,3 4,4 4,8 18 10 25 14 W 1017,3 20 0,0
22.01.2018 23:00:00 6,2 4,5 5,0 18 10 22 12 W 1016,5 16 0,0
22.01.2018 22:00:00 5,8 4,4 4,9 18 10 - - W 1015,5 15 0,0
22.01.2018 21:00:00 7,2 5,2 6,5 22 12 32 18 W 1014,8 15 0,0
22.01.2018 20:00:00 7,0 5,0 5,6 22 12 32 18 W 1014,2 14 0,0
22.01.2018 19:00:00 7,0 5,0 6,4 25 14 36 19 WNW 1013,4 13 0,0
22.01.2018 18:00:00 6,9 4,9 6,3 22 12 36 19 WNW 1012,6 10 0,0
22.01.2018 17:00:00 6,9 5,0 6,4 22 12 32 18 W 1011,0 13 0,0
22.01.2018 16:00:00 7,4 5,2 7,1 22 12 36 19 W 1010,1 13 0,0
22.01.2018 15:00:00 7,8 5,4 7,6 22 12 32 18 WNW 1008,6 14 0,0
22.01.2018 14:00:00 8,0 5,4 8,1 22 12 32 18 WNW 1008,0 16 0,0
22.01.2018 13:00:00 8,1 5,8 8,1 22 12 36 19 W 1007,6 16 0,0
22.01.2018 12:00:00 8,1 6,0 8,0 22 12 29 16 W 1007,1 17 0,0
22.01.2018 11:00:00 7,8 5,6 7,0 18 10 25 14 WNW 1006,7 19 0,0
22.01.2018 10:00:00 7,3 5,5 6,7 18 10 - - W 1006,0 18 0,0
22.01.2018 09:00:00 6,8 5,4 6,1 21 11 29 16 W 1005,6 10 0,0
22.01.2018 08:00:00 6,6 5,5 6,0 22 12 36 19 W 1004,7 14 0,0
22.01.2018 07:00:00 6,3 6,0 5,7 22 12 29 16 W 1004,3 3,4 0,1
22.01.2018 06:00:00 3,9 3,7 3,6 14 8 22 12 SSW 1003,8 2,7 0,0
22.01.2018 05:00:00 2,9 2,6 2,8 14 8 29 16 SSE 1003,9 4,2 0,2
22.01.2018 04:00:00 2,6 2,2 2,5 18 10 - - S 1004,5 5 0,2
22.01.2018 03:00:00 2,5 2,0 2,4 18 10 40 21 SSE 1005,2 3,7 0,3
22.01.2018 02:00:00 2,4 1,8 2,3 24 13 40 21 SSE 1005,6 3,2 0,1
22.01.2018 01:00:00 2,3 1,7 2,1 22 12 36 19 SE 1006,9 4,9 0,6
22.01.2018 00:00:00 2,3 1,6 2,2 22 12 40 21 SE 1008,3 3,2 0,7
21.01.2018 23:00:00 2,6 1,4 2,3 29 16 43 23 SSE 1009,3 7 0,7
21.01.2018 22:00:00 3,2 2,0 3,0 25 14 - - SSE 1010,4 9 0,2
21.01.2018 21:00:00 3,5 2,1 3,2 18 10 29 16 SSE 1011,8 10 0,0
21.01.2018 20:00:00 3,7 2,2 3,3 18 10 29 16 SSE 1012,6 15 0,0
21.01.2018 19:00:00 3,6 2,2 3,1 14 8 22 12 SSE 1013,1 19 0,0
21.01.2018 18:00:00 3,4 1,9 2,7 14 8 18 10 SSE 1013,9 23 0,0
21.01.2018 17:00:00 4,0 1,5 2,8 11 6 18 10 S 1014,3 35 0,0
21.01.2018 16:00:00 5,1 2,5 4,8 9 5 - - SW 1014,8 10 0,0
21.01.2018 15:00:00 5,8 1,1 5,5 11 6 18 10 WSW 1015,2 47 0,0
21.01.2018 14:00:00 6,3 1,5 5,7 14 8 22 12 WSW 1015,3 42 0,0
21.01.2018 13:00:00 6,5 1,9 6,6 7 4 14 8 WSW 1015,5 30 0,0
21.01.2018 12:00:00 5,9 2,0 5,3 9 5 14 8 W 1015,3 10 0,0
21.01.2018 11:00:00 4,0 1,2 3,0 9 5 14 8 W 1015,2 10 0,0
21.01.2018 10:00:00 2,9 0,3 1,1 7 4 22 12 W 1014,4 29 0,0
21.01.2018 09:00:00 1,7 -0,6 -2,5 7 4 11 6 W 1013,9 33 0,0
21.01.2018 08:00:00 1,0 -1,1 -1,1 11 6 18 10 WNW 1013,1 43 0,0
21.01.2018 07:00:00 1,6 -0,7 -1,3 11 6 14 8 WNW 1012,0 37 0,0
21.01.2018 06:00:00 1,5 -0,6 -0,3 11 6 25 14 WNW 1011,1 36 0,0
21.01.2018 05:00:00 2,4 -0,5 0,9 18 10 25 14 NW 1010,2 10 0,0
21.01.2018 04:00:00 2,4 0,0 1,0 18 10 - - NW 1009,3 38 0,0
21.01.2018 03:00:00 2,9 -0,6 0,8 22 12 36 19 NW 1008,4 10 0,0
21.01.2018 02:00:00 2,4 -0,1 0,5 18 10 22 12 NW 1007,1 37 0,0
21.01.2018 01:00:00 0,5 -1,0 -1,6 11 6 14 8 WNW 1005,8 34 0,0
21.01.2018 00:00:00 2,3 0,6 0,8 4 2 32 18 NNW 1004,7 49 0,1
20.01.2018 23:00:00 3,3 2,1 2,0 14 8 29 16 W 1003,9 23 0,0
20.01.2018 22:00:00 2,8 2,0 2,6 11 6 - - W 1002,8 6 0,6
20.01.2018 21:00:00 2,5 1,8 2,1 9 5 14 8 W 1002,2 10 0,4
20.01.2018 20:00:00 2,5 1,6 2,3 14 8 22 12 WNW 1001,6 8 0,9
20.01.2018 19:00:00 3,0 2,7 2,5 0 0 11 6 N 1000,7 6 0,1
20.01.2018 18:00:00 3,1 2,2 2,6 7 4 11 6 SSE 1000,2 12 0,0
20.01.2018 17:00:00 3,2 2,3 2,8 7 4 14 8 SSE 999,9 12 0,0
20.01.2018 16:00:00 3,7 2,4 3,4 11 6 - - S 999,4 11 0,0
20.01.2018 15:00:00 3,4 2,5 3,0 14 8 18 10 SSE 999,6 9 0,0
20.01.2018 14:00:00 3,1 2,3 2,6 11 6 18 10 S 1000,2 8 0,0
20.01.2018 13:00:00 2,5 1,8 2,1 14 8 22 12 S 1001,3 7 0,0
20.01.2018 12:00:00 1,9 1,1 1,5 13 7 22 12 S 1002,7 10 0,0
20.01.2018 11:00:00 1,6 0,7 1,0 14 8 22 12 S 1003,2 12 0,0
20.01.2018 10:00:00 1,4 0,6 0,9 14 8 - - S 1003,6 11 0,0
20.01.2018 09:00:00 1,3 0,6 0,6 14 8 22 12 S 1004,1 13 0,0
20.01.2018 08:00:00 0,3 -0,5 -0,6 14 8 22 12 S 1004,2 13 0,0
20.01.2018 07:00:00 -0,5 -1,4 -2,3 11 6 14 8 S 1004,6 21 0,0
20.01.2018 06:00:00 1,1 -0,5 0,2 15 8 18 10 S 1005,0 10 0,0
20.01.2018 05:00:00 0,9 -0,6 0,1 14 8 18 10 SSW 1005,5 24 0,0
20.01.2018 04:00:00 1,0 -0,5 0,2 13 7 - - SW 1006,1 10 0,0
20.01.2018 03:00:00 3,3 0,1 1,9 18 10 25 14 WSW 1006,6 29 0,0
20.01.2018 02:00:00 3,1 0,0 1,8 14 8 25 14 WSW 1006,8 29 0,0
20.01.2018 01:00:00 1,4 0,1 0,6 14 8 - - SSW 1006,9 33 0,2
20.01.2018 00:00:00 1,6 -0,1 0,8 11 6 40 21 SSE 1007,0 10 1,3
19.01.2018 23:00:00 3,4 -0,3 1,8 18 10 43 23 WSW 1007,1 26 0,3
19.01.2018 22:00:00 3,0 0,1 1,5 18 10 - - WSW 1007,0 28 1,1
19.01.2018 21:00:00 1,5 -0,3 0,3 4 2 32 18 SW 1007,1 43 0,7
19.01.2018 20:00:00 3,1 0,3 1,9 22 12 43 23 WSW 1007,1 10 1,6
19.01.2018 19:00:00 3,7 0,6 2,6 18 10 29 16 WSW 1007,1 32 0,0
19.01.2018 18:00:00 3,5 0,7 2,2 16 9 29 16 WSW 1007,0 10 0,0
19.01.2018 17:00:00 4,5 0,6 3,2 25 14 36 19 WSW 1007,0 37 0,0
19.01.2018 16:00:00 5,0 1,5 4,3 22 12 - - WSW 1007,1 39 0,1
19.01.2018 15:00:00 5,2 1,2 4,8 29 16 40 21 WSW 1007,0 41 0,0
19.01.2018 14:00:00 5,6 1,7 5,1 25 14 36 19 WSW 1007,1 37 0,0
19.01.2018 13:00:00 5,4 1,6 4,8 25 14 36 19 WSW 1007,2 32 0,0
19.01.2018 12:00:00 5,8 2,2 4,9 22 12 29 16 WSW 1007,2 28 0,0
19.01.2018 11:00:00 5,2 1,9 4,5 22 12 32 18 W 1007,2 10 0,0
19.01.2018 10:00:00 4,5 1,7 3,4 18 10 - - W 1006,8 10 0,0
19.01.2018 09:00:00 3,8 1,5 3,3 21 11 29 16 W 1006,1 10 0,1
19.01.2018 08:00:00 3,7 1,2 2,9 21 11 36 19 W 1005,5 10 0,0
19.01.2018 07:00:00 4,0 1,6 3,3 22 12 29 16 W 1004,8 10 0,0
19.01.2018 06:00:00 3,3 1,8 2,8 16 9 47 25 W 1004,3 10 0,3
19.01.2018 05:00:00 3,7 2,2 2,8 18 10 29 16 W 1003,6 10 0,1
19.01.2018 04:00:00 3,9 1,9 3,3 26 14 40 21 W 1003,3 10 0,6
19.01.2018 03:00:00 3,5 1,9 2,0 15 8 25 14 W 1002,8 10 0,0
19.01.2018 02:00:00 3,7 2,6 2,8 11 6 22 12 WSW 1002,3 8 0,2
19.01.2018 01:00:00 3,1 1,9 2,3 11 6 22 12 SW 1001,8 10 0,2
19.01.2018 00:00:00 3,0 1,9 2,5 5 3 18 10 SSW 1001,7 10 1,3
18.01.2018 23:00:00 3,4 2,1 2,9 21 11 29 16 WSW 1001,7 7 1,7
18.01.2018 22:00:00 3,3 1,8 2,7 15 8 - - W 1001,1 10 0,4
18.01.2018 21:00:00 3,4 1,2 0,5 11 6 18 10 WSW 1000,9 10 0,0
18.01.2018 20:00:00 2,5 0,2 -0,9 5 3 18 10 W 1000,7 10 0,0
18.01.2018 19:00:00 2,7 0,5 1,1 11 6 25 14 W 1000,8 10 0,0
18.01.2018 18:00:00 4,2 1,1 3,2 21 11 32 18 W 1000,7 10 0,0
18.01.2018 17:00:00 4,7 1,5 3,8 26 14 43 23 W 1000,5 10 0,0
18.01.2018 16:00:00 5,1 2,3 4,7 28 15 - - W 999,8 10 0,0
18.01.2018 15:00:00 4,4 2,8 3,9 28 15 50 27 WNW 999,0 10 1,4
18.01.2018 14:00:00 5,5 3,7 5,0 39 21 61 33 WNW 998,0 10 0,6
18.01.2018 13:00:00 5,4 2,7 5,1 46 25 86 47 WNW 996,5 10 0,1
18.01.2018 12:00:00 6,3 2,5 5,7 57 31 97 53 WNW 993,8 10 0,0
18.01.2018 11:00:00 5,0 2,0 4,7 76 41 122 66 WNW 989,7 8 0,0
18.01.2018 10:00:00 5,2 2,8 4,9 91 49 - - W 983,6 7 0,0

tt = Température de l'air
td = dewpoint
tt 5cm = Température de l'air 5cm
ff = Vitesse du vent
fx = gusts
dd = Direction du vent
ppp = reduced air pressure
vv = visibility
rr = Quantités de précipitations

stations d'obs. à proximité